Springfield, IL

10:52 AM CDT on May 23, 2018 (GMT -0500)
Capital

Weather History for KSPI - February, 2012

Change the Weather History Date:

Tuesday, February 14, 2012

  Actual Average Record
Temperature  
Mean Temperature 34 °F 31 °F  
Max Temperature 38 °F 39 °F 71 °F (1954)
Min Temperature 30 °F 22 °F -10 °F (1905)
Degree Days  
Heating Degree Days 31 34  
Month to date heating degree days 432 503  
Since 1 July heating degree days 3148 3829  
Cooling Degree Days 0 0  
Month to date cooling degree days 0 0  
Year to date cooling degree days 0 0  
Moisture  
Dew Point 30 °F    
Average Humidity 84    
Maximum Humidity 92    
Minimum Humidity 76    
Precipitation  
Precipitation T in 0.06 in 1.30 in (1908)
Month to date precipitation 0.95 0.83  
Year to date precipitation 2.43 2.65  
Snow  
Snow T in 0.20 in 5.50 in (2014)
Month to date snowfall 2.2 3.0  
Since 1 July snowfall 6.3 15.6  
Snow Depth 1.00 in    
Sea Level Pressure  
Sea Level Pressure 29.94 in    
Wind  
Wind Speed 7 mph (SW)    
Max Wind Speed 14 mph    
Max Gust Speed 16 mph    
Visibility 9 miles    
Events      
T = Trace of Precipitation, MM = Missing Value Source: NWS Daily Summary

Daily Weather History Graph

Daily Weather History Graph

Search for Another Location

Airport or City:

Astronomy

Feb. 14, 2012 Rise Set
Actual Time 6:53 AM CST 5:33 PM CST
Civil Twilight 6:25 AM CST 6:00 PM CST
Nautical Twilight 5:53 AM CST 6:32 PM CST
Astronomical Twilight 5:22 AM CST 7:04 PM CST
Moon 12:38 AM CST (2/14) 10:38 AM CST (2/14)
Length of Visible Light 11h 35m
Length of Day
10h 39m
Waning Gibbous, 50% of the Moon is Illuminated
Feb 14
Waning Gibbous
Feb 21
New
Feb 29
First Quarter
Mar 8
Full
Mar 14
Last Quarter

Hourly Weather History & Observations

Time (CST) Temp. Windchill Dew Point Humidity Pressure Visibility Wind Dir Wind Speed Gust Speed Precip Events Conditions
12:52 AM 30.9 °F 21.7 °F 28.0 °F 89% 29.86 in 5.0 mi South 11.5 mph - N/A   Overcast
1:52 AM 30.9 °F 24.3 °F 28.9 °F 92% 29.86 in 5.0 mi SSW 6.9 mph - N/A   Overcast
2:52 AM 30.9 °F 25.2 °F 28.9 °F 92% 29.85 in 8.0 mi SSW 5.8 mph - N/A   Overcast
3:52 AM 30.9 °F 26.2 °F 28.9 °F 92% 29.85 in 5.0 mi South 4.6 mph - 0.00 in   Overcast
4:41 AM 30.2 °F 25.4 °F 28.4 °F 93% 29.84 in 8.0 mi SSW 4.6 mph - N/A   Overcast
4:52 AM 30.9 °F 26.2 °F 28.9 °F 92% 29.86 in 9.0 mi SSW 4.6 mph - N/A   Overcast
5:13 AM 30.2 °F 25.4 °F 28.4 °F 93% 29.84 in 7.0 mi SSW 4.6 mph - N/A   Overcast
5:52 AM 30.9 °F 27.5 °F 28.9 °F 92% 29.87 in 9.0 mi SW 3.5 mph - N/A   Overcast
6:52 AM 32.0 °F 27.5 °F 30.0 °F 92% 29.88 in 9.0 mi SW 4.6 mph - N/A   Overcast
7:52 AM 32.0 °F 26.4 °F 30.0 °F 92% 29.90 in 9.0 mi WSW 5.8 mph - N/A   Overcast
8:52 AM 33.1 °F 27.7 °F 30.0 °F 89% 29.92 in 9.0 mi WSW 5.8 mph - N/A   Overcast
9:52 AM 34.0 °F 26.0 °F 30.9 °F 89% 29.94 in 10.0 mi West 10.4 mph - N/A   Overcast
10:52 AM 35.1 °F 27.4 °F 30.9 °F 85% 29.95 in 10.0 mi West 10.4 mph - N/A   Overcast
11:41 AM 35.6 °F 29.2 °F 32.0 °F 87% 29.93 in 10.0 mi WSW 8.1 mph - N/A   Overcast
11:52 AM 36.0 °F 31.1 °F 30.9 °F 82% 29.95 in 10.0 mi West 5.8 mph - N/A   Overcast
12:52 PM 37.0 °F 29.8 °F 32.0 °F 82% 29.94 in 10.0 mi WSW 10.4 mph - N/A   Overcast
1:52 PM 37.9 °F 32.1 °F 32.0 °F 79% 29.94 in 10.0 mi West 8.1 mph - N/A   Overcast
1:58 PM 37.4 °F 31.4 °F 32.0 °F 81% 29.92 in 10.0 mi WSW 8.1 mph - N/A   Overcast
2:52 PM 37.9 °F 31.5 °F 32.0 °F 79% 29.95 in 10.0 mi WSW 9.2 mph - N/A   Overcast
3:52 PM 37.0 °F 30.4 °F 30.9 °F 79% 29.98 in 10.0 mi WSW 9.2 mph - N/A   Overcast
4:52 PM 37.0 °F 32.4 °F 30.9 °F 79% 29.98 in 10.0 mi SSW 5.8 mph - N/A   Overcast
5:52 PM 36.0 °F 32.1 °F 30.0 °F 79% 30.00 in 10.0 mi SSW 4.6 mph - N/A   Overcast
6:52 PM 36.0 °F 31.1 °F 30.0 °F 79% 30.02 in 10.0 mi SW 5.8 mph - N/A   Overcast
7:52 PM 36.0 °F 30.3 °F 30.0 °F 79% 30.03 in 10.0 mi SSW 6.9 mph - N/A   Overcast
8:52 PM 35.1 °F 27.9 °F 30.0 °F 82% 30.04 in 10.0 mi SSW 9.2 mph - N/A   Overcast
9:22 PM 33.8 °F 29.6 °F 28.4 °F 81% 30.02 in 10.0 mi South 4.6 mph - N/A   Scattered Clouds
9:52 PM 32.0 °F 27.5 °F 28.9 °F 88% 30.05 in 10.0 mi SSE 4.6 mph - N/A   Clear
10:52 PM 30.9 °F 25.2 °F 28.0 °F 89% 30.05 in 8.0 mi South 5.8 mph - N/A   Partly Cloudy
11:52 PM 30.9 °F 24.3 °F 28.0 °F 89% 30.04 in 8.0 mi SSE 6.9 mph - N/A   Clear